Location: Roswell
(33.3943°N, 104.5230°W)
Time: 14:04:45
(UTC+00:00)

Vanguard 2 Rocket - Pass Details

Date: 15 November 2024
Orbit: 554 x 3296 km, 32.9° (Epoch: 30 November)

Event Time Altitude Azimuth Distance (km) Brightness Sun altitude
Rises 11:18:46 0° 208° (SSW) 4,529 10.3 -27.4°
Reaches altitude 10° 11:21:41 10° 198° (SSW) 3,884 10.0 -26.8°
Maximum altitude 11:31:19 35° 137° (SE) 3,260 10.0 -24.8°
Drops below altitude 10° 11:45:54 10° 80° (E) 5,906 12.0 -21.7°
Sets 11:51:37 0° 74° (ENE) 7,152 12.6 -20.6°
